Regional Weather Roundup
Issued by NWS

Home | Current Version | Previous Version | Graphics & Text | Print | Product List | Glossary On
Versions: 1 2 3 4 5 6 7 8 9 10 11 12 13 14 15 16 17 18 19 20 21 22 23 24 25 26 27 28 29 30 31 32 33 34 35 36 37 38 39 40 41 42 43 44 45 46 47 48 49 50
000
ASUS43 KMPX 172301
RWRMN
WEATHER ROUNDUP FOR MINNESOTA
NATIONAL WEATHER SERVICE TWIN CITIES/CHANHASSEN MN
500 PM CST WED DEC 17 2014


NOTE: "FAIR" INDICATES FEW OR NO CLOUDS BELOW 12,000 FEET WITH NO
SIGNIFICANT WEATHER AND/OR OBSTRUCTIONS TO VISIBILITY. N/A MEANS
CURRENT SKY AND/OR WEATHER CONDITIONS ARE NOT AVAILABLE.

MNZ060>063-068>070-180000-
   Twin Cities Metro

CITY           SKY/WX    TMP DP  RH WIND       PRES   REMARKS
TWIN CITIES    CLOUDY    18   9  68 N6        30.31S WCI  10
ST PAUL        CLOUDY    18  10  71 N6        30.33S WCI  10
CRYSTAL        MOCLDY    17   9  70 N5        30.30S WCI  10
BLAINE         MOCLDY    18  12  79 N3        30.31
LAKEVILLE      PTCLDY    16  10  79 N6        30.30R WCI   7
EDEN PRAIRIE   MOCLDY    17   9  70 N5        30.30R WCI  10
SOUTH ST PAUL  MOCLDY    19  11  73 NE6       30.31S WCI  10
LAKE ELMO      MOCLDY    18  12  79 NE3       30.32R
$$
MNZ001>005-007-008-013>017-022>024-027-028-180000-
   Northwest Minnesota

CITY           SKY/WX    TMP DP  RH WIND       PRES   REMARKS
BEMIDJI        PTCLDY    17  12  78 NE3       30.27S
HALLOCK        CLEAR     16  10  79 CALM      30.33S
ROSEAU         MOCLDY    16  10  79 CALM      30.32S
WARROAD        MOCLDY    10   7  85 CALM      30.33S
THIEF RVR FALL CLEAR     14  12  92 W3        30.31S
CROOKSTON      CLEAR     16  12  86 CALM      30.34S
FOSSTON        CLEAR      9   7  92 CALM      30.30R
DETROIT LAKES  CLEAR     14  12  92 NW7       30.29R WCI   4
MOORHEAD       CLEAR     18  16  93 CALM      30.32S
PARK RAPIDS    CLEAR     20  11  68 NE6       30.25S WCI  12
MAHNOMEN       FAIR      14  10  85 N5        30.29R WCI   6
$$
MNZ006-009>011-018-025>026-180000-
   North Central Minnesota

CITY           SKY/WX    TMP DP  RH WIND       PRES   REMARKS
BAUDETTE       CLEAR     13   7  77 N6        30.31S WCI   4
FLAG ISLAND    CLEAR     16   7  67 NE3       30.33R
INTL FALLS     CLEAR      9   4  80 CALM      30.32R
WASKISH        CLEAR     12  10  92 CALM      30.30S
BIG FORK       CLEAR     16   9  73 CALM      30.29S
LONGVILLE      CLEAR     14  10  85 CALM      30.28S
GRAND RAPIDS   CLEAR     16  10  79 CALM      30.27S
CRANE LAKE     PTCLDY    10   7  85 CALM      30.34R
ORR            CLEAR     12   9  85 CALM      30.28R
COOK           CLEAR     16  10  79 CALM      30.30R
WALKER         FAIR      17  10  74 CALM      30.27S
$$
MNZ012-019>021-037-180000-
   Northeast Minnesota

CITY           SKY/WX    TMP DP  RH WIND       PRES   REMARKS
DULUTH         CLOUDY    19  12  74 NW5       30.26R WCI  12
ELY            PTCLDY    14  10  85 CALM      30.29R
HIBBING        CLEAR     15   9  76 NW3       30.28R
EVELETH        PTCLDY    19  12  73 CALM      30.29R
DULUTH HARBOR  PTCLDY    19  14  79 CALM      30.33S
TWO HARBORS    CLOUDY    25  18  74 NW2       30.26R
SILVER BAY     CLOUDY    21  16  79 NW6       30.27R WCI  14
GRAND MARAIS     N/A     20   8  60 CALM      30.31R
G MARAIS ARPRT PTCLDY    10   3  72 N10       30.22R WCI  -3
$$
MNZ029>031-032-039>041-046>048-054>057-064-180000-
   West Central Minnesota

CITY           SKY/WX    TMP DP  RH WIND       PRES   REMARKS
FERGUS FALLS   CLEAR     16   9  73 NE5       30.31F WCI   9
WHEATON        CLEAR     10   7  85 CALM      30.33S
MORRIS         CLEAR     12   9  85 NW6       30.29R WCI   3
ALEXANDRIA     CLEAR     15  10  80 N5        30.27R WCI   8
ELBOW LAKE     FAIR      13   9  86 CALM      30.28R
WADENA         CLEAR     16  10  79 CALM      30.26S
GLENWOOD       CLEAR     14  10  85 N3        30.27S
APPLETON       CLEAR     14  10  85 CALM      30.30S
BENSON         CLEAR     12   9  85 N5        30.30R WCI   4
ORTONVILLE     CLEAR     14   9  79 W5        30.30S WCI   6
MADISON        CLEAR     16  12  86 CALM      30.31S
WILLMAR        FAIR      18  10  73 N6        30.29R WCI   9
$$
MNZ033>034-036-042>043-049>051-058-059-180000-
   Central Minnesota

CITY           SKY/WX    TMP DP  RH WIND       PRES   REMARKS
ST CLOUD       PTCLDY    16   8  71 N3        30.30R
SAUK CENTRE    FAIR      15  10  78 NE7       30.28S WCI   5
PAYNESVILLE    PTCLDY    13   9  86 N3        30.29S
AITKIN         CLEAR     18  10  73 CALM      30.27S
PINE RIVER     CLEAR     16  10  79 CALM      30.31R
BRAINERD       CLEAR     14   7  73 NE5       30.28S WCI   6
STAPLES        CLEAR     16  10  79 CALM      30.26S
LONG PRAIRIE   FAIR      14  10  85 CALM      30.28S
LITTLE FALLS   CLEAR     14   9  79 CALM      30.30R
LITCHFIELD     CLEAR     18  12  79 N3        30.30R
BUFFALO        CLOUDY    17  10  76 N3        30.32R
MAPLE LAKE     CLOUDY    17  12  82 N3        30.32R
$$
MNZ037-044-045-052-053-180000-
   East Central Minnesota

CITY           SKY/WX    TMP DP  RH WIND       PRES   REMARKS
PRINCETON      CLEAR     18  10  73 CALM      30.30R
MORA           CLOUDY    18  10  73 N3        30.31S
CAMBRIDGE      CLEAR     18   9  68 CALM      30.29R
RUSH CITY      PTCLDY    16  11  80 CALM      30.31R
MOOSE LAKE     CLOUDY    19  12  73 CALM      30.28S
HINCKLEY       CLOUDY    19  14  79 CALM      30.31R
CLOQUET        LGT SNOW  18  12  79 CALM      30.28S
MCGREGOR       PTCLDY    18  14  86 CALM      30.29S
$$
MNZ071>073-080-081-089-090-097-098-180000-
   Southwest Minnesota

CITY           SKY/WX    TMP DP  RH WIND       PRES   REMARKS
MONTEVIDEO     CLEAR     14  10  85 CALM      30.32R
GRANITE FALLS  CLEAR     13  10  87 W6        30.33R WCI   4
CANBY          PTCLDY    14  11  88 CALM      30.31S
MARSHALL       PTCLDY    12   9  85 CALM      30.29S
REDWOOD FALLS  CLEAR     15  11  83 W8        30.30R WCI   4
OLIVIA         CLEAR     18  12  79 NW3       30.29R
PIPESTONE      PTCLDY    16  12  86 NE1       30.23F
WINDOM         CLEAR     12   9  85 CALM      30.27S
WORTHINGTON    PTCLDY    18  14  86 N7        30.25S WCI   8
JACKSON        CLEAR     19  14  79 N7        30.26S WCI  10
TRACY          PTCLDY    13  10  89 CALM      30.28S
SLAYTON        PTCLDY    14  12  92 CALM      30.26S
$$
MNZ065>067-074>077-082>085-091>093-180000-
   South Central Minnesota

CITY           SKY/WX    TMP DP  RH WIND       PRES   REMARKS
MANKATO        CLEAR     19  10  68 N5        30.29R WCI  13
NEW ULM        CLEAR     16  12  86 NW3       30.30R
ST JAMES       CLEAR     18  12  79 W5        30.30F WCI  11
FAIRMONT       CLEAR     18  10  73 N5        30.28S WCI  11
GLENCOE        CLEAR     19  14  82 N3        30.29R
FARIBAULT      CLEAR     18  12  79 CALM      30.29R
OWATONNA       CLEAR     18  12  79 NW5       30.28R WCI  11
WASECA         CLEAR     18  12  79 N5        30.29S WCI  11
ALBERT LEA     CLEAR     18  16  93 CALM      30.27R
$$
MNZ078>079-086>088-094>096-180000-
   Southeast Minnesota

CITY           SKY/WX    TMP DP  RH WIND       PRES   REMARKS
ROCHESTER      CLEAR     16  11  80 N6        30.26R WCI   7
RED WING       FLURRIES  18  10  73 N3        30.31R
STANTON        CLEAR     19  13  76 NE5       30.29R WCI  12
DODGE CENTER   CLEAR     18  14  86 N3        30.27R
WINONA         CLOUDY    21  14  73 NW6       30.32R WCI  14
AUSTIN         PTCLDY    18  14  86 N5        30.26R WCI  11
PRESTON        MOCLDY    17  12  82 N6        30.26R WCI   8
$$
ABBREVIATIONS USED IN REMARKS
   TC - TEMPERATURES IN CELSIUS
  WCI - WIND CHILL INDEX
   HX - HEAT INDEX
  VSB - VISIBILITY
$$



USA.gov is the U.S. government's official web portal to all federal, state and local government web resources and services.